Vertical_Velocity
-3 -2 -1 -2 1 4 5 3 2 1 0 -1 -1 1 -0 -1 -0 2 -1 3 5 3 0 -0 -1 0 1 1 0 1 0 2 -0 -1 1 -0 -1 -0 -0 -1 0 1 0
1 0 1 1 0 0 1 3 1 2 1 1 1 1 2 2 3 2 2 0 -1 -1 -1 -1 -1 -0 -0 0 -0 -0 -0 -0 -2 0 -1 -1 -6 5 0 2 2 2 2
2 1 1 2 1 1 3 3 4 3 2 0 0 -1 -0 -0 -1 -0 -1 -1 -0 0 0 -1 -1 -1 -1 1 1 2 1 -1 0 -2 -1 -2 6 -7 1 -2 -5 -4 -2
-1 -0 1 1 0 -1 -0 4 4 3 1 3 -0 1 1 -2 3 -1 -2 -1 -3 -2 -1 -1 -1 -2 -2 -1 -0 -1 -0 -0 -1 1 -1 -2 2 -2 -10 2 -0 -8 -5
1 2 0 0 -0 -0 -1 1 3 3 3 3 0 0 4 7 0 -2 -2 -6 -5 -5 -4 -3 -3 -3 -2 -1 -2 -2 -2 -1 -1 -0 1 3 -1 1 -1 -11 -4 4 0
1 -1 -1 -0 0 1 2 2 1 0 3 4 5 4 1 -4 -1 -0 0 2 -0 1 -2 -2 -2 -0 1 1 1 1 1 1 0 -1 0 0 2 1 9 8 -8 2 -8
0 0 -0 -0 0 -0 1 3 4 3 4 3 2 0 -0 0 2 0 1 1 -1 -1 0 1 -0 -0 -0 -0 0 -0 -1 -0 -1 1 -2 0 -1 3 -1 4 -6 -3 -6
1 1 -0 -1 0 1 1 2 2 5 3 1 2 1 1 2 2 1 -0 -2 -1 2 3 1 -0 -1 -1 -0 -0 0 -1 -1 -2 -1 1 -0 0 3 4 3 7 -8 -7
0 1 0 1 1 2 2 2 2 0 3 1 3 4 3 2 3 1 2 2 2 1 1 -0 -0 1 1 -0 -1 -2 -2 -2 0 -0 -1 1 2 5 6 2 8 11 2
2 0 1 1 1 1 1 1 3 1 1 0 1 1 1 1 1 0 -2 -2 -2 -2 -2 -2 -3 -4 -2 -1 -1 -1 1 -1 0 0 -1 -1 -3 -4 -4 -1 1 3 5
-1 -0 0 1 2 2 2 2 1 1 0 2 1 0 1 1 0 -0 -0 -1 -2 -1 -0 0 2 3 1 -1 -1 -1 -1 -0 -2 -0 1 -1 1 0 1 1 -0 -1 9
0 1 0 0 -0 0 1 1 2 2 2 1 -0 -0 -1 -1 -0 -0 0 -0 -0 -1 -1 -1 -0 -0 -0 -1 -2 -3 -3 -4 -4 -3 -2 -2 -2 -2 -0 1 2 3 6
2 2 2 2 1 0 1 1 1 1 1 1 2 -0 -2 -1 -0 1 1 1 -1 -2 -2 -0 -2 -5 -5 -3 -3 -1 -1 -0 0 -1 -2 -2 -1 -1 1 3 3 2 2
-1 -1 0 1 2 2 -0 -0 -0 0 -0 -1 -1 2 0 1 1 -1 -1 -1 -1 -0 -2 -5 -6 -4 -2 -2 -1 -1 -1 -1 -1 -2 -1 -1 1 1 0 1 2 2 0
1 1 0 0 -0 0 0 1 1 1 1 2 1 0 -1 -1 -2 -2 -1 0 -2 -4 -6 -5 -1 -0 -0 1 -0 -2 -3 -2 -3 -3 -0 -0 3 4 2 -2 -2 -3 -5
0 1 1 -0 1 1 0 -0 -0 -0 -0 0 -0 -1 -1 -1 1 1 -1 -3 -3 -4 -3 -0 0 -0 -0 1 0 -2 -5 -3 -0 -4 -3 -1 -2 -3 1 3 7 13 4
-0 1 -1 0 -1 -0 -0 -2 0 1 1 0 0 1 1 1 -1 -4 -4 -5 -4 0 -0 -1 -1 1 1 1 1 3 3 1 1 -0 -3 -6 3 -2 -2 1 -1 1 3
-1 1 -0 0 0 -2 -1 -0 -1 0 -1 1 1 -0 -2 -3 -1 -0 -0 0 1 -1 -0 1 -1 -4 -2 -1 -2 -2 -1 -2 -0 -1 -1 0 3 4 -5 -2 -0 4 -1
1 -0 2 1 0 0 0 1 -0 0 1 0 1 -0 1 -0 -1 -1 0 -1 -0 0 -2 -4 -2 -2 -0 -1 -1 -3 -3 -3 0 -2 -3 -5 -6 1 2 1 -2 -3 -3
-2 -2 -1 -1 1 2 0 -1 -0 -0 -1 0 -1 -2 -0 -1 1 -3 -3 -2 -5 -4 -4 -3 -2 -5 -5 -1 -1 1 -2 -5 -5 -4 -2 2 -4 0 3 -2 -2 -8 -5
0 2 3 -0 1 -1 -0 -1 -1 -0 -1 -1 -2 -1 -1 -3 -2 -1 -2 -3 -1 -1 -2 -3 -3 -0 1 -3 -2 -4 -2 -3 -5 -5 0 3 -1 -2 -4 4 3 -3 4
5 12 1 1 3 4 1 -1 -0 -0 1 -1 -2 -3 -2 -1 -1 -2 -2 -1 -1 -0 -1 -2 -1 0 -0 -3 -1 0 -0 -0 -0 -2 -2 -4 1 1 -0 -1 6 -2 4
-2 2 1 -0 1 1 0 1 -4 -3 -0 -1 -2 -3 -3 -3 -2 -1 -0 -1 -1 -2 -4 -4 -3 -7 -2 -2 -2 -3 0 -1 -6 -3 -3 -5 -0 -3 -1 0 3 -1 6
3 2 2 0 -1 -6 -8 -0 -0 1 0 -0 0 1 1 -1 -1 -1 -2 -4 -4 -4 -2 -6 -5 -2 -3 -3 0 -1 -4 -4 -6 -5 -8 -7 1 1 6 -0 4 -1 6
-0 6 -4 -7 -5 1 2 0 -1 -0 -1 -1 -1 -2 -2 -1 -1 -3 -2 -0 0 3 -1 -3 -1 -7 -3 2 3 1 -6 -0 -0 -1 -7 -7 -3 -6 1 11 5 4 4
-2 -5 -6 1 1 -0 -2 -2 -2 -0 -2 -2 0 -1 -2 -2 -4 -5 -6 0 -2 -5 -2 -1 2 0 -1 10 3 -1 1 3 3 -5 -2 -6 -2 -4 8 11 7 7 4
Height
1508 1510 1513 1516 1521 1526 1529 1532 1534 1537 1539 1542 1546 1549 1551 1553 1555 1557 1558 1560 1561 1562 1562 1563 1563 1563 1563 1563 1562 1562 1561 1560 1558 1556 1555 1553 1551 1550 1549 1548 1547 1547 1546
1507 1508 1510 1512 1516 1521 1526 1529 1532 1535 1538 1542 1545 1548 1550 1552 1554 1555 1556 1558 1559 1560 1561 1562 1562 1562 1562 1561 1561 1560 1560 1559 1558 1557 1555 1552 1552 1549 1548 1547 1546 1545 1544
1505 1506 1507 1509 1511 1515 1521 1526 1530 1533 1536 1539 1543 1545 1548 1550 1551 1553 1555 1557 1559 1560 1560 1561 1561 1560 1560 1560 1559 1559 1558 1558 1558 1557 1558 1555 1553 1549 1548 1547 1546 1544 1543
1501 1503 1504 1505 1507 1510 1515 1522 1526 1530 1533 1537 1539 1542 1545 1548 1550 1552 1554 1556 1558 1558 1559 1560 1560 1559 1558 1558 1557 1556 1556 1556 1555 1556 1555 1554 1552 1549 1544 1544 1541 1540 1539
1499 1500 1500 1501 1503 1507 1512 1518 1523 1527 1530 1533 1536 1540 1544 1545 1547 1550 1552 1554 1555 1556 1557 1558 1558 1557 1555 1554 1553 1553 1553 1552 1552 1551 1551 1550 1548 1547 1545 1538 1536 1538 1534
1496 1496 1497 1499 1501 1504 1508 1512 1516 1520 1525 1530 1534 1537 1538 1542 1545 1548 1550 1552 1552 1553 1554 1555 1554 1554 1552 1551 1550 1550 1549 1549 1548 1547 1546 1545 1545 1543 1542 1537 1532 1529 1528
1496 1497 1497 1499 1501 1503 1506 1510 1515 1518 1522 1526 1529 1532 1535 1540 1543 1546 1548 1549 1550 1550 1551 1551 1551 1550 1550 1549 1547 1546 1546 1545 1543 1542 1541 1540 1539 1538 1536 1533 1528 1524 1521
1495 1497 1497 1499 1502 1504 1507 1510 1514 1517 1520 1524 1528 1531 1535 1538 1541 1543 1545 1547 1548 1549 1549 1549 1548 1548 1547 1546 1545 1544 1543 1542 1540 1538 1537 1536 1534 1532 1530 1527 1524 1516 1512
1494 1496 1498 1500 1503 1505 1508 1511 1513 1516 1519 1523 1527 1530 1533 1536 1538 1540 1543 1545 1546 1547 1548 1548 1547 1546 1545 1543 1542 1541 1539 1538 1536 1534 1532 1530 1529 1527 1525 1522 1521 1517 1505
1493 1496 1498 1500 1502 1505 1507 1510 1513 1516 1519 1522 1525 1528 1531 1534 1537 1539 1541 1543 1545 1546 1546 1545 1544 1544 1542 1541 1539 1537 1535 1533 1532 1530 1527 1525 1522 1521 1519 1518 1515 1513 1508
1491 1495 1498 1500 1503 1505 1508 1510 1513 1516 1519 1522 1525 1528 1531 1534 1536 1538 1540 1541 1543 1544 1543 1543 1541 1540 1538 1537 1535 1534 1532 1530 1527 1526 1523 1521 1518 1514 1512 1509 1507 1504 1502
1489 1493 1496 1499 1503 1506 1509 1511 1514 1516 1519 1522 1525 1529 1532 1534 1536 1537 1538 1539 1539 1540 1541 1540 1539 1538 1536 1535 1532 1531 1528 1525 1523 1521 1518 1515 1512 1509 1506 1503 1499 1496 1494
1488 1493 1497 1499 1502 1505 1509 1512 1514 1517 1520 1522 1525 1527 1530 1533 1535 1536 1537 1538 1538 1538 1537 1538 1537 1536 1534 1531 1528 1525 1523 1520 1517 1514 1511 1509 1505 1502 1498 1496 1493 1489 1485
1486 1491 1496 1501 1503 1505 1509 1512 1514 1517 1520 1522 1525 1527 1529 1532 1533 1535 1536 1536 1536 1536 1536 1535 1534 1532 1530 1527 1524 1521 1519 1516 1514 1510 1507 1504 1500 1496 1491 1487 1484 1480 1477
1483 1488 1493 1498 1502 1505 1508 1511 1515 1518 1520 1523 1525 1527 1529 1531 1532 1533 1534 1534 1534 1533 1533 1532 1530 1528 1526 1523 1519 1517 1514 1510 1507 1505 1502 1499 1496 1491 1486 1479 1474 1472 1468
1479 1485 1490 1494 1499 1503 1507 1511 1514 1518 1520 1523 1525 1526 1528 1529 1530 1531 1531 1532 1531 1531 1530 1529 1527 1525 1523 1520 1517 1512 1509 1507 1503 1498 1495 1490 1486 1482 1477 1473 1468 1465 1460
1474 1480 1486 1492 1497 1501 1505 1509 1514 1517 1519 1521 1523 1525 1526 1527 1528 1528 1528 1528 1528 1527 1526 1525 1524 1522 1520 1517 1513 1509 1504 1500 1497 1492 1488 1483 1480 1476 1470 1462 1458 1455 1451
1472 1479 1484 1489 1494 1498 1503 1508 1512 1515 1518 1520 1522 1523 1524 1526 1527 1527 1526 1526 1525 1524 1522 1520 1519 1517 1516 1513 1508 1504 1499 1495 1491 1487 1484 1478 1472 1469 1465 1459 1451 1445 1440
1470 1477 1483 1486 1492 1498 1502 1506 1511 1514 1516 1518 1520 1522 1523 1524 1524 1524 1524 1523 1522 1520 1518 1516 1515 1512 1511 1508 1504 1499 1494 1489 1485 1481 1477 1474 1467 1463 1458 1453 1445 1438 1433
1468 1474 1479 1486 1492 1496 1501 1506 1510 1513 1515 1517 1518 1520 1521 1521 1521 1521 1521 1520 1518 1517 1515 1513 1511 1508 1505 1503 1501 1496 1490 1483 1478 1475 1470 1468 1464 1456 1452 1447 1442 1437 1432
1463 1471 1479 1485 1491 1495 1500 1505 1509 1512 1514 1516 1517 1518 1519 1519 1519 1519 1518 1517 1515 1513 1511 1508 1506 1503 1501 1497 1495 1492 1487 1481 1473 1468 1462 1458 1455 1451 1447 1443 1439 1433 1431
1465 1471 1477 1485 1491 1496 1501 1505 1509 1512 1513 1514 1515 1516 1516 1517 1516 1515 1514 1514 1511 1509 1506 1503 1501 1499 1497 1494 1491 1487 1483 1479 1471 1464 1457 1451 1447 1443 1439 1438 1436 1430 1426
1464 1472 1479 1485 1491 1497 1501 1505 1508 1511 1512 1512 1513 1514 1514 1513 1513 1512 1510 1509 1507 1504 1502 1498 1495 1493 1491 1487 1485 1481 1478 1473 1467 1460 1453 1448 1442 1437 1431 1430 1430 1428 1423
1465 1473 1480 1485 1490 1496 1502 1505 1508 1509 1509 1510 1510 1510 1510 1509 1509 1508 1506 1504 1502 1500 1496 1492 1489 1485 1483 1481 1477 1473 1467 1464 1459 1454 1447 1441 1436 1432 1426 1423 1423 1423 1421
1470 1476 1482 1487 1493 1498 1501 1503 1505 1506 1507 1507 1507 1507 1507 1506 1504 1504 1503 1500 1498 1496 1491 1488 1484 1480 1475 1475 1470 1465 1461 1458 1453 1446 1440 1435 1430 1425 1422 1417 1417 1418 1417
1472 1478 1484 1488 1492 1496 1499 1501 1502 1503 1504 1505 1505 1504 1503 1502 1500 1497 1496 1494 1491 1491 1489 1485 1481 1477 1473 1466 1461 1459 1456 1451 1446 1440 1436 1431 1426 1421 1417 1414 1414 1414 1414